Location: Hurstbourne Priors
(51.2000°N, 1.3667°W)
Time: 20:36:12
(UTC+00:00)

Transit 4A - Pass Details

Date: 23 April 2021
Orbit: 870 x 974 km, 66.8° (Epoch: 09 May)

Event Time Altitude Azimuth Distance (km) Brightness Sun altitude
Rises 03:11:16 0° 297° (WNW) 3,578 10.8 -14.4°
Reaches altitude 10° 03:14:44 10° 316° (NW) 2,614 10.2 -14.0°
Maximum altitude 03:18:46 18° 358° (N) 2,076 10.2 -13.5°
Drops below altitude 10° 03:22:44 10° 40° (NE) 2,569 11.6 -13.0°
Sets 03:26:06 0° 59° (ENE) 3,492 12.8 -12.6°
